Home > Weather > Hamilton > Past weeks

Flag for Canada Weather for the Past 2 Weeks in Hamilton, Ontario, Canada

Now
41 °F

Passing clouds.


Feels Like: 36 °F
Forecast: 39 / 51 °F
Wind: 7 mph from Northwest

Location: Hamilton Airport

Current Time: Apr 30, 2016 at 12:18:12 AM

Latest Report: Apr 29, 2016 at 11:00 PM


Visibility: 8 mi

Pressure: 30.19 "Hg

Humidity: 57%

Dew Point: 27 °F

Location of HamiltonLocation

Historic Weather in Hamilton — Graph

°F

Hamilton Temperature Yesterday

Maximum temperature yesterday: 48 °F (at 4:00 PM)
Minimum temperature yesterday: 39 °F (at 12:00 AM)
Average temperature yesterday: 42 °F

High & Low Weather Summary for the Past Weeks

 TemperatureHumidityPressure
High75 °F (Apr 18, 2:00 PM)100% (Apr 22, 7:00 AM)30.49 "Hg (Apr 22, 7:00 AM)
Low30 °F (Apr 27, 1:00 AM)23% (Apr 17, 5:00 PM)29.71 "Hg (Apr 26, 5:00 AM)
Average47 °F60%30.15 "Hg
* Reported Apr 14 10:00 PM — Apr 29 10:00 PM, Hamilton, Weather by CustomWeather, © 2016

Note: Actual official high and low records may vary slightly from our data, if they occured in-between our weather recording intervals... More about our weather records

Advertising

Hamilton Weather History for the Previous 24 Hours

Scroll right to see more
 ConditionsComfort  
Time TempWeatherWind HumidityBarometerVisibility
10:00 PM
Fri, Apr 29
41 °FClear.3 mph57%30.16 "Hg8 mi
9:00 PM43 °FPassing clouds.6 mph53%30.14 "Hg10 mi
8:00 PM45 °FScattered clouds.6 mph49%30.14 "Hg15 mi
7:00 PM48 °FPassing clouds.7 mph46%30.11 "Hg15 mi
6:00 PM48 °FPartly sunny.8 mph46%30.11 "Hg15 mi
5:00 PM48 °FBroken clouds.10 mph46%30.08 "Hg15 mi
4:00 PM48 °FBroken clouds.12 mph46%30.08 "Hg15 mi
3:00 PM46 °FMostly cloudy.13 mph43%30.10 "Hg15 mi
2:00 PM46 °FPartly sunny.13 mph46%30.08 "Hg15 mi
1:00 PM45 °FPartly sunny.22 mph42%30.06 "Hg15 mi
12:00 PM43 °FPartly sunny.18 mph53%30.09 "Hg15 mi
11:00 AM41 °FPartly sunny.22 mph53%30.09 "Hg15 mi
10:00 AM41 °FPartly sunny.18 mph57%30.09 "Hg15 mi
9:00 AM41 °FPartly sunny.20 mph57%30.08 "Hg15 mi
8:00 AM39 °FPartly sunny.21 mph70%30.07 "Hg15 mi
7:00 AM39 °FPartly cloudy.17 mph75%30.07 "Hg15 mi
6:00 AM39 °FPassing clouds.14 mph75%30.07 "Hg15 mi
5:00 AM39 °FOvercast.13 mph75%30.06 "Hg15 mi
4:00 AM39 °FOvercast.13 mph81%30.06 "Hg15 mi
3:00 AM39 °FOvercast.16 mph81%30.06 "Hg15 mi
2:00 AM39 °FOvercast.14 mph75%30.06 "Hg15 mi
1:00 AM39 °FOvercast.14 mph75%30.07 "Hg15 mi
12:00 AM39 °FOvercast.13 mph70%30.06 "Hg15 mi
Weather by CustomWeather, © 2016

See weather overviewHow to use our weather pages